Cloud_Cover
100 100 100 100 100 100 100 100 100 74 100 74 99 100 98 100 100 100 100 100 100 100 99 62 100 67 74 27 5 5 0 0 0 0 0 0 0 0 13 23 100 100 100 100
100 100 100 100 100 100 100 100 100 100 100 100 86 97 100 99 100 100 100 100 100 68 17 8 75 28 5 5 5 5 1 1 0 0 0 0 10 98 95 100 100 100 100 100
100 100 100 100 100 100 100 100 100 100 88 100 100 100 100 100 100 100 100 100 76 71 4 5 5 5 9 5 5 4 0 0 0 1 2 95 100 100 100 100 100 100 100 100
100 100 100 100 100 100 100 100 100 100 100 100 100 100 100 100 100 100 100 86 50 86 36 5 5 4 0 4 5 5 5 5 32 49 96 100 100 100 100 100 100 50 0 0
100 100 100 100 100 100 100 100 100 100 100 100 97 100 99 100 100 98 12 99 58 5 14 72 5 5 0 3 2 5 5 5 5 5 5 43 75 46 17 0 0 0 0 0
100 100 100 100 100 100 100 100 100 100 100 100 100 60 100 53 100 93 55 62 99 100 96 86 10 5 4 1 0 5 5 5 5 5 5 10 25 5 3 2 0 0 0 0
100 100 100 100 100 100 100 100 100 100 71 28 100 100 100 52 81 96 100 100 99 98 88 6 41 53 17 7 5 5 5 48 5 8 12 10 5 5 5 2 4 1 0 0
100 100 100 100 100 100 100 97 100 75 93 91 75 34 100 100 92 11 91 100 100 100 92 30 5 16 45 24 25 7 21 5 20 69 56 6 5 5 5 5 2 5 5 5
100 100 100 100 100 100 100 100 100 88 72 10 5 91 99 100 100 33 24 46 5 5 5 5 42 30 55 28 58 78 84 100 86 21 15 53 5 5 5 7 5 5 5 5
100 100 100 100 100 100 100 100 100 100 74 5 5 9 26 88 94 8 44 5 5 5 5 4 19 78 76 96 100 100 79 50 50 100 79 44 6 15 5 16 17 7 28 13
100 100 100 100 100 100 100 100 100 100 71 16 65 98 70 79 6 44 17 76 39 6 5 5 6 77 92 75 52 21 10 17 17 11 5 5 5 70 73 15 12 20 44 10
100 100 100 100 100 100 100 100 100 100 100 88 12 66 100 58 25 87 6 5 78 85 57 48 68 32 5 14 9 5 5 6 19 49 57 82 65 32 59 5 5 5 5 7
100 100 100 100 100 100 100 100 100 63 8 44 43 94 100 98 26 20 24 54 62 72 88 72 14 38 10 8 20 76 100 62 26 48 7 21 50 36 14 5 5 5 5 5
100 100 100 100 100 100 100 100 100 100 76 62 41 93 100 100 100 97 100 92 6 5 7 55 66 63 92 100 100 96 67 58 59 87 79 50 17 5 5 5 5 5 5 5
100 100 100 100 100 100 100 100 98 99 66 62 90 94 100 100 100 7 5 5 9 77 100 88 78 97 100 43 21 22 35 84 88 46 40 6 5 76 88 25 13 86 76 55
100 100 100 100 100 98 68 76 99 100 100 98 6 46 100 100 95 5 5 5 5 5 5 67 14 2 5 5 9 59 100 86 99 41 35 16 60 89 100 84 43 40 28 89
100 100 100 100 100 45 4 13 94 100 100 81 16 100 100 100 78 57 89 93 76 6 5 5 6 16 82 100 98 95 69 80 95 98 100 100 100 100 100 100 86 77 44 90
100 100 100 97 98 67 4 5 7 5 54 60 25 99 100 100 79 81 57 5 5 23 17 32 46 33 25 8 24 64 96 100 100 100 100 100 100 100 100 100 100 100 100 100
100 100 99 92 8 2 5 4 5 95 2 63 81 92 80 75 14 69 96 97 92 93 100 100 85 25 23 28 68 100 100 100 100 100 100 100 100 100 100 100 100 100 100 100
100 100 100 100 94 5 88 0 10 100 1 100 70 2 0 5 5 5 5 5 24 5 5 14 42 46 77 77 98 100 100 100 100 100 100 100 100 100 100 100 100 100 100 100
100 100 90 91 100 10 90 0 56 45 2 94 97 17 5 5 5 0 3 4 5 7 97 97 96 73 60 27 44 86 100 100 100 100 100 100 100 100 100 100 100 100 100 100
100 100 43 100 100 73 54 4 5 56 5 5 13 5 7 5 4 4 5 5 16 83 13 8 28 92 86 100 92 100 100 100 100 100 100 100 100 100 100 100 100 100 100 100
10 77 100 70 5 0 0 3 13 40 55 12 5 6 5 5 5 5 5 6 12 5 8 22 90 97 100 100 100 100 100 100 100 100 100 100 100 100 100 100 100 100 100 100
5 5 6 15 0 0 4 5 85 99 6 0 3 4 5 26 53 66 42 6 29 72 96 84 96 100 100 100 100 100 100 100 100 100 100 100 100 100 100 100 100 100 100 100
100 100 93 100 23 36 6 5 5 6 5 5 5 5 5 5 5 5 5 16 91 95 100 82 100 100 100 100 100 100 100 100 100 100 100 100 100 100 100 100 100 100 100 100
1 10 30 35 47 67 17 30 13 5 5 5 5 5 5 5 5 48 80 88 94 98 100 99 100 100 100 100 100 100 100 100 100 100 100 100 100 100 100 100 100 100 100 93